When you browse on this site, cookies collect data to enhance your experience and personalize the content and advertising you see.
Visit our Privacy Policy to learn more. By continuing to use the site, you agree to this use of cookies and data.
  • In Österreich
  • Länderverzeichnis
  • Für 7 Tage
  • Wassertemperatur
  • Satellitenkarten
  • Wetterkarte
  • News
  • Widgets
  • user-avatar
    Anmelden

    Stündliche Wetter Bialokury

    Heute, 11 Dezember, Dienstag

    Zeit Temperatur Niederschläge Wind Luftdruck Luftfeuchtigkeit
    00:00 +2°C° 0.5 mm 6 m/S 749 mmHg 80%
    01:00 +2°C° 0.5 mm 6 m/S 749 mmHg 80%
    02:00 +2°C° 0.4 mm 6 m/S 749 mmHg 81%
    03:00 +2°C° 0.4 mm 6 m/S 750 mmHg 81%
    04:00 +2°C° 0.4 mm 5 m/S 750 mmHg 82%
    05:00 +2°C° 0.2 mm 5 m/S 750 mmHg 82%
    06:00 +1°C° 0.2 mm 5 m/S 751 mmHg 82%
    07:00 +1°C° 0.2 mm 6 m/S 751 mmHg 83%
    08:00 +1°C° 0.2 mm 6 m/S 752 mmHg 82%
    09:00 +2°C° 0.2 mm 6 m/S 752 mmHg 82%
    10:00 +2°C° 0.2 mm 7 m/S 753 mmHg 81%
    11:00 +2°C° 0.3 mm 7 m/S 754 mmHg 80%
    12:00 +2°C° 0.3 mm 7 m/S 754 mmHg 78%
    13:00 +2°C° 0.3 mm 7 m/S 755 mmHg 77%
    14:00 +2°C° 0.2 mm 7 m/S 755 mmHg 78%
    15:00 +2°C° 0.2 mm 7 m/S 756 mmHg 79%
    16:00 +2°C° 0.2 mm 6 m/S 756 mmHg 80%
    17:00 +2°C° 0.1 mm 6 m/S 757 mmHg 81%
    18:00 +2°C° 0.1 mm 6 m/S 757 mmHg 83%
    19:00 +2°C° 0.1 mm 6 m/S 758 mmHg 84%
    20:00 +1°C° 0.1 mm 5 m/S 758 mmHg 85%
    21:00 +1°C° 0.1 mm 5 m/S 759 mmHg 87%
    22:00 +1°C° 0.1 mm 4 m/S 759 mmHg 88%
    23:00 0°C° 0 mm 4 m/S 760 mmHg 88%

    Morgen, 12 Dezember, Mittwoch

    Zeit Temperatur Niederschläge Wind Luftdruck Luftfeuchtigkeit
    00:00 0°C° 0 mm 4 m/S 760 mmHg 89%
    01:00 +1°C° 0 mm 3 m/S 761 mmHg 89%
    02:00 +1°C° 0 mm 3 m/S 761 mmHg 89%
    03:00 0°C° 0 mm 3 m/S 762 mmHg 90%
    04:00 +1°C° 0 mm 2 m/S 762 mmHg 90%
    05:00 +1°C° 0 mm 2 m/S 762 mmHg 90%
    06:00 +1°C° 0 mm 2 m/S 763 mmHg 90%
    07:00 +1°C° 0 mm 2 m/S 763 mmHg 90%
    08:00 +1°C° 0 mm 2 m/S 763 mmHg 88%
    09:00 +2°C° 0 mm 2 m/S 764 mmHg 87%
    10:00 +2°C° 0 mm 2 m/S 764 mmHg 86%
    11:00 +3°C° 0.1 mm 2 m/S 764 mmHg 83%
    12:00 +2°C° 0.1 mm 3 m/S 764 mmHg 81%
    13:00 +3°C° 0.1 mm 3 m/S 764 mmHg 78%
    14:00 +3°C° 0.2 mm 3 m/S 764 mmHg 81%
    15:00 +1°C° 0.2 mm 4 m/S 764 mmHg 84%
    16:00 +1°C° 0.2 mm 4 m/S 764 mmHg 87%
    17:00 0°C° 0.1 mm 4 m/S 765 mmHg 87%
    18:00 0°C° 0.1 mm 4 m/S 765 mmHg 88%
    19:00 0°C° 0.1 mm 4 m/S 765 mmHg 89%
    20:00 0°C° 0.1 mm 4 m/S 765 mmHg 89%
    21:00 0°C° 0.1 mm 4 m/S 765 mmHg 90%
    22:00 -1°C° 0.1 mm 4 m/S 765 mmHg 90%
    23:00 -1°C° 0.1 mm 4 m/S 765 mmHg 90%

    übermorgen, 13 Dezember, Donnerstag

    Zeit Temperatur Niederschläge Wind Luftdruck Luftfeuchtigkeit
    00:00 0°C° 0.1 mm 3 m/S 765 mmHg 91%
    01:00 0°C° 0.1 mm 3 m/S 765 mmHg 91%
    02:00 0°C° 0 mm 3 m/S 765 mmHg 91%
    03:00 0°C° 0 mm 3 m/S 765 mmHg 92%
    04:00 0°C° 0 mm 3 m/S 765 mmHg 93%
    05:00 0°C° 0 mm 3 m/S 765 mmHg 92%
    06:00 0°C° 0 mm 3 m/S 765 mmHg 91%
    07:00 0°C° 0 mm 3 m/S 765 mmHg 91%
    08:00 0°C° 0.1 mm 3 m/S 765 mmHg 89%
    09:00 0°C° 0.1 mm 3 m/S 765 mmHg 87%
    10:00 0°C° 0.1 mm 3 m/S 765 mmHg 86%
    11:00 +1°C° 0 mm 3 m/S 765 mmHg 84%
    12:00 +1°C° 0 mm 3 m/S 765 mmHg 82%
    13:00 +1°C° 0 mm 4 m/S 765 mmHg 79%
    14:00 +1°C° 0.1 mm 4 m/S 765 mmHg 81%
    15:00 0°C° 0.1 mm 4 m/S 765 mmHg 83%
    16:00 0°C° 0.1 mm 4 m/S 765 mmHg 84%
    17:00 0°C° 0.1 mm 4 m/S 765 mmHg 85%
    18:00 0°C° 0.1 mm 4 m/S 765 mmHg 85%
    19:00 0°C° 0.1 mm 4 m/S 765 mmHg 85%
    20:00 0°C° 0 mm 3 m/S 765 mmHg 86%
    21:00 0°C° 0 mm 3 m/S 765 mmHg 87%
    22:00 -1°C° 0 mm 3 m/S 766 mmHg 88%
    23:00 -1°C° 0 mm 2 m/S 766 mmHg 88%

    14 Dezember, Freitag

    Zeit Temperatur Niederschläge Wind Luftdruck Luftfeuchtigkeit
    00:00 -1°C° 0 mm 2 m/S 766 mmHg 88%
    01:00 -1°C° 0 mm 2 m/S 766 mmHg 87%
    02:00 -1°C° 0 mm 2 m/S 766 mmHg 87%
    03:00 -1°C° 0 mm 2 m/S 766 mmHg 87%
    04:00 -2°C° 0 mm 2 m/S 766 mmHg 86%
    05:00 -2°C° 0 mm 2 m/S 766 mmHg 86%
    06:00 -2°C° 0 mm 2 m/S 766 mmHg 86%
    07:00 -2°C° 0 mm 2 m/S 766 mmHg 86%
    08:00 -2°C° 0 mm 2 m/S 767 mmHg 84%
    09:00 -1°C° 0 mm 2 m/S 767 mmHg 81%
    10:00 -1°C° 0 mm 2 m/S 767 mmHg 79%
    11:00 -1°C° 0 mm 2 m/S 767 mmHg 77%
    12:00 +1°C° 0 mm 2 m/S 768 mmHg 75%
    13:00 0°C° 0 mm 3 m/S 768 mmHg 72%
    14:00 -1°C° 0 mm 3 m/S 768 mmHg 76%
    15:00 -1°C° 0 mm 2 m/S 768 mmHg 79%
    16:00 -2°C° 0 mm 2 m/S 768 mmHg 82%
    17:00 -2°C° 0 mm 3 m/S 768 mmHg 83%
    18:00 -2°C° 0 mm 3 m/S 769 mmHg 84%
    19:00 -2°C° 0 mm 3 m/S 769 mmHg 84%
    20:00 -1°C° 0 mm 3 m/S 769 mmHg 85%
    21:00 -1°C° 0 mm 3 m/S 769 mmHg 85%
    22:00 -1°C° 0 mm 3 m/S 770 mmHg 85%
    23:00 -1°C° 0.1 mm 3 m/S 770 mmHg 86%

    15 Dezember, Samstag

    Zeit Temperatur Niederschläge Wind Luftdruck Luftfeuchtigkeit
    00:00 -1°C° 0.1 mm 3 m/S 770 mmHg 87%
    01:00 -1°C° 0.1 mm 2 m/S 770 mmHg 87%
    02:00 -1°C° 0.1 mm 2 m/S 770 mmHg 88%
    03:00 -1°C° 0.1 mm 2 m/S 770 mmHg 88%
    04:00 -1°C° 0.1 mm 2 m/S 770 mmHg 89%
    05:00 -1°C° 0 mm 2 m/S 770 mmHg 89%
    06:00 -2°C° 0 mm 3 m/S 770 mmHg 89%
    07:00 -2°C° 0 mm 3 m/S 770 mmHg 90%
    08:00 -1°C° 0 mm 3 m/S 771 mmHg 88%
    09:00 -1°C° 0 mm 3 m/S 771 mmHg 86%
    10:00 -2°C° 0 mm 4 m/S 771 mmHg 85%
    11:00 -1°C° 0 mm 4 m/S 771 mmHg 83%
    12:00 0°C° 0 mm 3 m/S 771 mmHg 81%
    13:00 0°C° 0 mm 3 m/S 771 mmHg 79%
    14:00 -1°C° 0 mm 4 m/S 771 mmHg 81%
    15:00 -1°C° 0 mm 4 m/S 771 mmHg 83%
    16:00 -2°C° 0 mm 4 m/S 771 mmHg 85%
    17:00 -2°C° 0 mm 4 m/S 771 mmHg 86%
    18:00 -3°C° 0 mm 4 m/S 771 mmHg 87%
    19:00 -3°C° 0 mm 4 m/S 771 mmHg 87%
    20:00 -3°C° 0 mm 4 m/S 771 mmHg 86%
    21:00 -4°C° 0 mm 5 m/S 771 mmHg 85%
    22:00 -4°C° 0 mm 5 m/S 771 mmHg 84%
    23:00 -4°C° 0 mm 5 m/S 770 mmHg 83%

    16 Dezember, Sonntag

    Zeit Temperatur Niederschläge Wind Luftdruck Luftfeuchtigkeit
    00:00 -4°C° 0 mm 5 m/S 770 mmHg 82%
    01:00 -4°C° 0 mm 5 m/S 770 mmHg 81%
    02:00 -4°C° 0 mm 6 m/S 769 mmHg 81%
    03:00 -4°C° 0 mm 6 m/S 769 mmHg 81%
    04:00 -4°C° 0 mm 6 m/S 769 mmHg 81%
    05:00 -4°C° 0 mm 6 m/S 768 mmHg 81%
    06:00 -4°C° 0 mm 6 m/S 768 mmHg 82%
    07:00 -5°C° 0 mm 6 m/S 768 mmHg 82%
    08:00 -4°C° 0 mm 7 m/S 768 mmHg 81%
    09:00 -4°C° 0 mm 7 m/S 767 mmHg 79%
    10:00 -5°C° 0 mm 8 m/S 767 mmHg 78%
    11:00 -5°C° 0 mm 8 m/S 767 mmHg 76%
    12:00 -4°C° 0 mm 8 m/S 766 mmHg 74%
    13:00 -4°C° 0 mm 8 m/S 766 mmHg 71%
    14:00 -4°C° 0 mm 8 m/S 766 mmHg 72%
    15:00 -3°C° 0 mm 7 m/S 766 mmHg 72%
    16:00 -3°C° 0 mm 7 m/S 765 mmHg 73%
    17:00 -3°C° 0 mm 7 m/S 765 mmHg 73%
    18:00 -3°C° 0 mm 7 m/S 765 mmHg 74%
    19:00 -3°C° 0 mm 7 m/S 765 mmHg 75%
    20:00 -3°C° 0 mm 7 m/S 765 mmHg 76%
    21:00 -3°C° 0 mm 7 m/S 765 mmHg 77%
    22:00 -3°C° 0 mm 6 m/S 765 mmHg 79%
    23:00 -3°C° 0.1 mm 6 m/S 765 mmHg 81%
    Mehr zeigen